Regional Weather Roundup
Issued by NWS

Home | Current Version | Previous Version | Graphics & Text | Print | Product List | Glossary On
Versions: 1 2 3 4 5 6 7 8 9 10 11 12 13 14 15 16 17 18 19 20 21 22 23 24 25 26 27 28 29 30 31 32 33 34 35 36 37 38 39 40 41 42 43 44 45 46 47 48 49 50
000
ASUS43 KFSD 251310
RWRSD

WEATHER ROUNDUP FOR SOUTH DAKOTA
NATIONAL WEATHER SERVICE SIOUX FALLS SD
700 AM CST SUN JAN 25 2015

NOTE: "FAIR" INDICATES FEW OR NO CLOUDS BELOW 12,000 FEET WITH NO
SIGNIFICANT WEATHER AND/OR OBSTRUCTIONS TO VISIBILITY.


SDZ001>005-009-010-012>017-251400-
NORTHWEST AND NORTH CENTRAL SOUTH DAKOTA

CITY           SKY/WX    TMP DP  RH WIND       PRES   REMARKS
BUFFALO          N/A     29  23  78 W10       29.96R WCI  20
FAITH            N/A     31  26  82 NW14      30.00R WCI  21
MOBRIDGE       CLOUDY    38  33  82 NW9       29.93R
$$

SDZ012>016-024>037-041>051-057-063-072>074-251400-
SOUTHWEST AND SOUTH CENTRAL SOUTH DAKOTA

CITY           SKY/WX    TMP DP  RH WIND       PRES   REMARKS
RAPID CTY ARPT CLEAR     32  21  64 N10       30.01S WCI  24
PIERRE         CLOUDY    37  31  78 NW14      29.97R
CUSTER         CLEAR     34   6  31 N13G29    29.98R WCI  25
ELLSWORTH AFB  CLEAR     34  22  60 N15       30.01S WCI  24
PHILIP         CLEAR     33  26  75 NW13      30.01R WCI  24
PINE RIDGE     CLEAR     27  21  78 W8        30.06R WCI  19
WINNER         CLOUDY    38  31  76 NW16      29.98R
$$

SDZ004>011-016>023-039-040-251400-
NORTHEAST SOUTH DAKOTA

CITY           SKY/WX    TMP DP  RH WIND       PRES   REMARKS
ABERDEEN       CLOUDY    28  24  85 N10       29.98R WCI  19
WATERTOWN      CLOUDY    29  27  92 N6        29.91R WCI  23
SISSETON         N/A     24  22  91 N14       29.96R WCI  12
$$

SDZ017-020-022-023-036>040-048>070-251400-
SOUTHEAST SOUTH DAKOTA

CITY           SKY/WX    TMP DP  RH WIND       PRES   REMARKS
SIOUX FALLS    CLOUDY    33  32  96 N14       29.89R WCI  23
HURON          CLOUDY    30  28  92 N12       29.95R WCI  20
CHAMBERLAIN    CLOUDY    36  32  87 NW13      29.95S
MITCHELL       CLOUDY    32  30  92 N13       29.96R WCI  22
YANKTON        CLOUDY    32  28  86 NW18      29.92R WCI  20
$$

ABBREVIATIONS USED IN REMARKS
   TC - TEMPERATURE IN CELSIUS
  WCI - WIND CHILL INDEX
   HX - HEAT INDEX
  VSB - VISIBILITY




USA.gov is the U.S. government's official web portal to all federal, state and local government web resources and services.